Time,TemperatureF,DewpointF,PressureIn,WindDirection,WindDirectionDegrees,WindSpeedMPH,WindSpeedGustMPH,Humidity,HourlyPrecipIn,Conditions,Clouds,dailyrainin,SoftwareType,DateUTC
2013-03-12 00:02:00,34.0,31.0,29.91,West,267,3.0,7.0,88,0.00,,,0.15,,2013-03-12 04:02:00,
2013-03-12 00:12:00,34.0,31.0,29.91,West,267,3.0,7.0,88,0.00,,,0.15,,2013-03-12 04:12:00,
2013-03-12 00:22:00,34.0,31.0,29.91,West,265,2.0,7.0,88,0.00,,,0.15,,2013-03-12 04:22:00,
2013-03-12 00:32:00,34.0,31.0,29.92,West,267,2.0,7.0,88,0.00,,,0.15,,2013-03-12 04:32:00,
2013-03-12 00:42:00,34.0,31.0,29.92,West,267,2.0,7.0,88,0.00,,,0.15,,2013-03-12 04:42:00,
2013-03-12 00:52:00,33.0,30.0,29.92,West,275,2.0,7.0,88,0.00,,,0.15,,2013-03-12 04:52:00,
2013-03-12 01:02:00,33.0,30.0,29.92,WSW,257,3.0,8.0,88,0.00,,,0.15,,2013-03-12 05:02:00,
2013-03-12 01:12:00,33.0,30.0,29.92,WSW,257,3.0,8.0,88,0.00,,,0.15,,2013-03-12 05:12:00,
2013-03-12 01:22:00,33.0,30.0,29.92,West,266,4.0,10.0,88,0.00,,,0.15,,2013-03-12 05:22:00,
2013-03-12 01:32:00,33.0,30.0,29.91,West,270,1.0,4.0,88,0.00,,,0.15,,2013-03-12 05:32:00,
2013-03-12 01:42:00,33.0,30.0,29.91,West,270,1.0,4.0,88,0.00,,,0.15,,2013-03-12 05:42:00,
2013-03-12 01:52:00,33.0,30.0,29.92,West,259,3.0,6.0,88,0.00,,,0.15,,2013-03-12 05:52:00,
2013-03-12 02:02:00,33.0,30.0,29.92,WSW,254,3.0,8.0,88,0.00,,,0.14,,2013-03-12 06:02:00,
2013-03-12 02:12:00,33.0,30.0,29.92,WSW,254,3.0,8.0,88,0.00,,,0.14,,2013-03-12 06:12:00,
2013-03-12 02:22:00,33.0,30.0,29.92,WSW,256,2.0,8.0,87,0.00,,,0.13,,2013-03-12 06:22:00,
2013-03-12 02:32:00,33.0,30.0,29.92,West,268,2.0,7.0,87,0.00,,,0.12,,2013-03-12 06:32:00,
2013-03-12 02:42:00,33.0,30.0,29.92,West,268,2.0,7.0,87,0.00,,,0.12,,2013-03-12 06:42:00,
2013-03-12 02:52:00,33.0,30.0,29.92,West,272,1.0,4.0,87,0.00,,,0.11,,2013-03-12 06:52:00,
2013-03-12 03:02:00,33.0,29.0,29.93,West,264,3.0,8.0,85,0.00,,,0.10,,2013-03-12 07:02:00,
2013-03-12 03:12:00,33.0,29.0,29.93,West,264,3.0,8.0,85,0.00,,,0.10,,2013-03-12 07:12:00,
2013-03-12 03:22:00,33.0,29.0,29.93,West,277,3.0,10.0,85,0.00,,,0.09,,2013-03-12 07:22:00,
2013-03-12 03:32:00,33.0,29.0,29.93,West,276,3.0,7.0,85,0.00,,,0.08,,2013-03-12 07:32:00,
2013-03-12 03:42:00,33.0,29.0,29.93,West,276,3.0,7.0,85,0.00,,,0.08,,2013-03-12 07:42:00,
2013-03-12 03:52:00,33.0,29.0,29.93,West,270,3.0,11.0,85,0.00,,,0.07,,2013-03-12 07:52:00,
2013-03-12 04:02:00,33.0,29.0,29.93,West,260,3.0,6.0,85,0.00,,,0.07,,2013-03-12 08:02:00,
2013-03-12 04:12:00,33.0,29.0,29.93,West,260,3.0,6.0,85,0.00,,,0.07,,2013-03-12 08:12:00,
2013-03-12 04:22:00,33.0,29.0,29.93,West,267,3.0,8.0,84,0.00,,,0.06,,2013-03-12 08:22:00,
2013-03-12 04:32:00,33.0,29.0,29.93,WSW,238,1.0,5.0,84,0.00,,,0.06,,2013-03-12 08:32:00,
2013-03-12 04:42:00,33.0,29.0,29.93,WSW,238,1.0,5.0,84,0.00,,,0.06,,2013-03-12 08:42:00,
2013-03-12 04:52:00,33.0,29.0,29.93,West,259,2.0,7.0,84,0.00,,,0.05,,2013-03-12 08:52:00,
2013-03-12 05:03:00,33.0,29.0,29.93,WSW,256,2.0,6.0,84,0.00,,,0.04,,2013-03-12 09:03:00,
2013-03-12 05:12:00,33.0,29.0,29.93,WSW,256,2.0,6.0,84,0.00,,,0.04,,2013-03-12 09:12:00,
2013-03-12 05:22:00,33.0,29.0,29.93,WSW,255,3.0,7.0,84,0.00,,,0.04,,2013-03-12 09:22:00,
2013-03-12 05:32:00,33.0,29.0,29.93,WSW,258,2.0,7.0,85,0.00,,,0.03,,2013-03-12 09:32:00,
2013-03-12 05:52:00,33.0,29.0,29.94,WSW,256,4.0,9.0,85,0.00,,,0.03,,2013-03-12 09:52:00,
2013-03-12 06:02:00,33.0,29.0,29.94,West,259,2.0,6.0,85,0.00,,,0.02,,2013-03-12 10:02:00,
2013-03-12 06:12:00,33.0,29.0,29.94,West,259,2.0,6.0,85,0.00,,,0.02,,2013-03-12 10:12:00,
2013-03-12 06:22:00,33.0,29.0,29.94,West,261,2.0,8.0,84,0.00,,,0.02,,2013-03-12 10:22:00,
2013-03-12 06:32:00,33.0,29.0,29.95,West,264,2.0,6.0,85,0.00,,,0.02,,2013-03-12 10:32:00,
2013-03-12 06:42:00,33.0,29.0,29.95,West,264,2.0,6.0,85,0.00,,,0.02,,2013-03-12 10:42:00,
2013-03-12 06:52:00,33.0,28.0,29.96,WSW,258,3.0,9.0,83,0.00,,,0.02,,2013-03-12 10:52:00,
2013-03-12 07:02:00,33.0,29.0,29.96,WSW,237,0.0,4.0,85,0.00,,,0.02,,2013-03-12 11:02:00,
2013-03-12 07:12:00,33.0,29.0,29.96,WSW,237,0.0,4.0,85,0.00,,,0.02,,2013-03-12 11:12:00,
2013-03-12 07:22:00,33.0,29.0,29.96,WSW,257,2.0,7.0,85,0.00,,,0.01,,2013-03-12 11:22:00,
2013-03-12 07:32:00,33.0,29.0,29.96,WSW,257,1.0,4.0,85,0.00,,,0.01,,2013-03-12 11:32:00,
2013-03-12 07:42:00,33.0,29.0,29.96,WSW,257,1.0,4.0,85,0.00,,,0.01,,2013-03-12 11:42:00,
2013-03-12 07:52:00,33.0,29.0,29.96,West,264,1.0,5.0,85,0.00,,,0.01,,2013-03-12 11:52:00,
2013-03-12 08:02:00,33.0,29.0,29.98,WSW,256,2.0,6.0,84,0.00,,,0.01,,2013-03-12 12:02:00,
2013-03-12 08:12:00,33.0,29.0,29.98,WSW,256,2.0,6.0,84,0.00,,,0.01,,2013-03-12 12:12:00,
2013-03-12 08:22:00,32.0,27.0,29.99,West,270,3.0,10.0,81,0.00,,,0.01,,2013-03-12 12:22:00,
2013-03-12 08:32:00,32.0,26.0,29.99,West,279,3.0,8.0,79,0.00,,,0.01,,2013-03-12 12:32:00,
2013-03-12 08:42:00,32.0,26.0,29.99,West,279,3.0,8.0,79,0.00,,,0.01,,2013-03-12 12:42:00,
2013-03-12 08:52:00,32.0,26.0,29.99,West,274,2.0,4.0,79,0.00,,,0.01,,2013-03-12 12:52:00,
2013-03-12 09:02:00,32.0,26.0,29.99,West,273,1.0,4.0,79,0.00,,,0.01,,2013-03-12 13:02:00,
2013-03-12 09:12:00,32.0,26.0,29.99,West,273,1.0,4.0,79,0.00,,,0.01,,2013-03-12 13:12:00,
2013-03-12 09:22:00,32.0,26.0,30.00,West,279,3.0,9.0,79,0.00,,,0.01,,2013-03-12 13:22:00,
2013-03-12 09:32:00,32.0,27.0,30.01,West,272,1.0,4.0,80,0.00,,,0.01,,2013-03-12 13:32:00,
2013-03-12 09:42:00,32.0,27.0,30.01,West,272,1.0,4.0,80,0.00,,,0.01,,2013-03-12 13:42:00,
2013-03-12 09:52:00,33.0,28.0,30.01,WSW,256,2.0,5.0,80,0.00,,,0.01,,2013-03-12 13:52:00,
2013-03-12 10:02:00,33.0,26.0,30.01,West,270,3.0,8.0,75,0.00,,,0.01,,2013-03-12 14:02:00,
2013-03-12 10:12:00,33.0,26.0,30.01,West,270,3.0,8.0,75,0.00,,,0.01,,2013-03-12 14:12:00,
2013-03-12 10:22:00,33.0,26.0,30.01,West,267,2.0,7.0,75,0.00,,,0.01,,2013-03-12 14:22:00,
2013-03-12 10:32:00,34.0,27.0,30.01,WSW,250,4.0,9.0,75,0.00,,,0.01,,2013-03-12 14:32:00,
2013-03-12 10:42:00,34.0,27.0,30.01,WSW,250,4.0,9.0,75,0.00,,,0.01,,2013-03-12 14:42:00,
2013-03-12 10:53:00,34.0,27.0,30.02,West,263,3.0,12.0,75,0.00,,,0.01,,2013-03-12 14:53:00,
2013-03-12 11:02:00,35.0,28.0,30.02,West,270,3.0,9.0,76,0.00,,,0.01,,2013-03-12 15:02:00,
2013-03-12 11:12:00,35.0,28.0,30.02,West,270,3.0,9.0,76,0.00,,,0.01,,2013-03-12 15:12:00,
2013-03-12 11:22:00,35.0,28.0,30.04,West,275,4.0,10.0,74,0.00,,,0.01,,2013-03-12 15:22:00,
2013-03-12 11:32:00,35.0,28.0,30.04,WSW,256,4.0,10.0,75,0.00,,,0.01,,2013-03-12 15:32:00,
2013-03-12 11:42:00,35.0,28.0,30.04,WSW,256,4.0,10.0,75,0.00,,,0.01,,2013-03-12 15:42:00,
2013-03-12 11:53:00,35.0,28.0,30.05,West,260,4.0,9.0,75,0.00,,,0.01,,2013-03-12 15:53:00,
2013-03-12 12:02:00,35.0,28.0,30.05,WSW,254,4.0,9.0,76,0.00,,,0.01,,2013-03-12 16:02:00,
2013-03-12 12:12:00,35.0,28.0,30.05,WSW,254,4.0,9.0,76,0.00,,,0.01,,2013-03-12 16:12:00,
2013-03-12 12:22:00,36.0,29.0,30.04,WSW,245,4.0,11.0,74,0.00,,,0.00,,2013-03-12 16:22:00,
2013-03-12 12:32:00,36.0,29.0,30.04,West,267,3.0,9.0,74,0.00,,,0.00,,2013-03-12 16:32:00,
2013-03-12 12:42:00,36.0,29.0,30.04,West,267,3.0,9.0,74,0.00,,,0.00,,2013-03-12 16:42:00,
2013-03-12 12:53:00,37.0,29.0,30.04,West,260,3.0,8.0,73,0.00,,,0.00,,2013-03-12 16:53:00,
2013-03-12 13:02:00,38.0,29.0,30.04,West,265,2.0,6.0,71,0.00,,,0.00,,2013-03-12 17:02:00,
2013-03-12 13:12:00,38.0,29.0,30.04,West,265,2.0,6.0,71,0.00,,,0.00,,2013-03-12 17:12:00,
2013-03-12 13:22:00,39.0,29.0,30.05,West,262,4.0,9.0,68,0.00,,,0.00,,2013-03-12 17:22:00,
2013-03-12 13:33:00,39.0,29.0,30.05,West,263,4.0,8.0,66,0.00,,,0.00,,2013-03-12 17:33:00,
2013-03-12 13:43:00,39.0,29.0,30.05,West,263,4.0,8.0,66,0.00,,,0.00,,2013-03-12 17:43:00,
2013-03-12 13:53:00,40.0,30.0,30.05,WSW,253,3.0,12.0,67,0.00,,,0.00,,2013-03-12 17:53:00,
2013-03-12 14:02:00,40.0,30.0,30.04,West,260,5.0,11.0,66,0.00,,,0.00,,2013-03-12 18:02:00,
2013-03-12 14:12:00,41.0,30.0,30.05,WSW,250,4.0,9.0,65,0.00,,,0.00,,2013-03-12 18:12:00,
2013-03-12 14:23:00,41.0,30.0,30.05,WSW,250,4.0,9.0,65,0.00,,,0.00,,2013-03-12 18:23:00,
2013-03-12 14:33:00,40.0,30.0,30.04,SW,234,4.0,13.0,67,0.00,,,0.00,,2013-03-12 18:33:00,
2013-03-12 14:42:00,40.0,30.0,30.04,SW,234,4.0,13.0,67,0.00,,,0.00,,2013-03-12 18:42:00,
2013-03-12 14:53:00,41.0,31.0,30.04,WSW,252,5.0,11.0,66,0.00,,,0.00,,2013-03-12 18:53:00,
2013-03-12 15:03:00,42.0,31.0,30.04,West,263,4.0,9.0,66,0.00,,,0.00,,2013-03-12 19:03:00,
2013-03-12 15:13:00,42.0,31.0,30.04,West,263,4.0,9.0,66,0.00,,,0.00,,2013-03-12 19:13:00,
2013-03-12 15:22:00,41.0,30.0,30.03,West,263,4.0,11.0,65,0.00,,,0.00,,2013-03-12 19:22:00,
2013-03-12 15:33:00,42.0,30.0,30.03,WSW,256,4.0,10.0,63,0.00,,,0.00,,2013-03-12 19:33:00,
2013-03-12 15:43:00,42.0,30.0,30.03,WSW,256,4.0,10.0,63,0.00,,,0.00,,2013-03-12 19:43:00,
2013-03-12 15:53:00,43.0,31.0,30.02,WSW,253,5.0,14.0,63,0.00,,,0.00,,2013-03-12 19:53:00,
2013-03-12 16:02:00,43.0,30.0,30.02,West,272,5.0,10.0,59,0.00,,,0.00,,2013-03-12 20:02:00,
2013-03-12 16:12:00,43.0,30.0,30.02,West,272,5.0,10.0,59,0.00,,,0.00,,2013-03-12 20:12:00,
2013-03-12 16:22:00,43.0,30.0,30.02,WSW,242,6.0,13.0,61,0.00,,,0.00,,2013-03-12 20:22:00,
2013-03-12 16:32:00,43.0,30.0,30.02,West,265,4.0,10.0,60,0.00,,,0.00,,2013-03-12 20:32:00,
2013-03-12 16:42:00,43.0,30.0,30.02,West,265,4.0,10.0,60,0.00,,,0.00,,2013-03-12 20:42:00,
2013-03-12 16:53:00,43.0,30.0,30.01,WSW,257,4.0,12.0,61,0.00,,,0.00,,2013-03-12 20:53:00,
2013-03-12 17:02:00,44.0,30.0,30.01,SW,230,5.0,14.0,58,0.00,,,0.00,,2013-03-12 21:02:00,
2013-03-12 17:12:00,44.0,30.0,30.01,SW,230,5.0,14.0,58,0.00,,,0.00,,2013-03-12 21:12:00,
2013-03-12 17:22:00,44.0,30.0,30.02,West,278,3.0,9.0,58,0.00,,,0.00,,2013-03-12 21:22:00,
2013-03-12 17:32:00,43.0,30.0,30.02,West,265,4.0,10.0,59,0.00,,,0.00,,2013-03-12 21:32:00,
2013-03-12 17:43:00,43.0,30.0,30.02,West,265,4.0,10.0,59,0.00,,,0.00,,2013-03-12 21:43:00,
2013-03-12 17:52:00,43.0,29.0,30.02,West,261,4.0,11.0,58,0.00,,,0.00,,2013-03-12 21:52:00,
2013-03-12 18:00:00,43.0,28.0,30.02,WSW,251,6.0,14.0,56,0.00,,,0.00,,2013-03-12 22:00:00,
2013-03-12 18:02:00,44.0,28.0,30.02,West,276,5.0,16.0,53,0.00,,,0.00,,2013-03-12 22:02:00,
2013-03-12 18:12:00,44.0,28.0,30.02,West,276,5.0,16.0,53,0.00,,,0.00,,2013-03-12 22:12:00,
2013-03-12 18:22:00,43.0,28.0,30.02,WSW,251,6.0,14.0,56,0.00,,,0.00,,2013-03-12 22:22:00,
2013-03-12 18:32:00,43.0,28.0,30.02,WSW,251,6.0,14.0,56,0.00,,,0.00,,2013-03-12 22:32:00,
2013-03-12 18:42:00,43.0,28.0,30.02,WSW,251,6.0,14.0,56,0.00,,,0.00,,2013-03-12 22:42:00,
2013-03-12 18:53:00,43.0,28.0,30.02,WSW,251,6.0,14.0,56,0.00,,,0.00,,2013-03-12 22:53:00,
2013-03-12 22:33:00,34.0,32.0,30.08,WNW,288,0.0,3.0,92,0.00,,,0.00,,2013-03-13 02:33:00,
2013-03-12 22:43:00,34.0,32.0,30.08,WNW,288,0.0,3.0,92,0.00,,,0.00,,2013-03-13 02:43:00,
2013-03-12 22:52:00,34.0,32.0,30.08,WNW,288,0.0,3.0,92,0.00,,,0.00,,2013-03-13 02:52:00,
2013-03-12 23:02:00,34.0,32.0,30.08,WSW,254,1.0,4.0,91,0.00,,,0.00,,2013-03-13 03:02:00,
2013-03-12 23:12:00,34.0,32.0,30.08,WSW,254,1.0,4.0,91,0.00,,,0.00,,2013-03-13 03:12:00,
2013-03-12 23:22:00,34.0,31.0,30.08,West,261,1.0,5.0,90,0.00,,,0.00,,2013-03-13 03:22:00,
2013-03-12 23:32:00,34.0,31.0,30.08,West,261,0.0,3.0,90,0.00,,,0.00,,2013-03-13 03:32:00,
2013-03-12 23:42:00,34.0,31.0,30.08,West,261,0.0,3.0,90,0.00,,,0.00,,2013-03-13 03:42:00,
2013-03-12 23:52:00,33.0,31.0,30.08,West,261,1.0,3.0,92,0.00,,,0.00,,2013-03-13 03:52:00,